Regional Weather Roundup
Issued by NWS Green Bay, WI

Home | Current Version | Previous Version | Text Only | Print | Product List | Glossary On
Versions: 1 2 3 4 5 6 7 8 9 10 11 12 13 14 15 16 17 18 19 20 21 22 23 24 25 26 27 28 29 30 31 32 33 34 35 36 37 38 39 40 41 42 43 44 45 46 47 48 49 50
000
ASUS43 KGRB 160210
RWRGRB

NORTH-CENTRAL AND NORTHEAST WISCONSIN REGIONAL WEATHER ROUNDUP
NATIONAL WEATHER SERVICE GREEN BAY WI
900 PM CDT MON SEP 15 2014

WIZ005-009-010>012-018-019-160300-
NORTH CENTRAL WISCONSIN

CITY           SKY/WX    TMP DP  RH WIND       PRES   REMARKS
IRONWOOD       CLEAR     39  37  93 SW3       30.13S
MANITOWISH WTR CLEAR     37  37 100 CALM      30.15S
ARBOR VITAE    CLEAR     39  36  88 CALM      30.15S
EAGLE RIVER    CLEAR     37  36  96 CALM      30.15R
LAND O LAKES   CLEAR     38  37  97 CALM      30.16R
RHINELANDER    CLEAR     40  36  86 NW3       30.16S
PHILLIPS       CLEAR     39  38  94 CALM      30.16S
ANTIGO         CLEAR     44  39  81 NW5       30.16R
TOMAHAWK       CLEAR     37  36  93 CALM      30.17S
MERRILL        MOCLDY    45  39  80 CALM      30.17R
$$

WIZ013-073-160300-
NORTHEAST WISCONSIN

CITY           SKY/WX    TMP DP  RH WIND       PRES   REMARKS
IRON MOUNTAIN  CLEAR     47  39  74 CALM      30.13R
MARINETTE      CLOUDY    52  46  82 NW3       30.11R
OCONTO         CLEAR     48  48 100 CALM      30.12R
$$

WIZ017-030-035>037-045-160300-
CENTRAL WISCONSIN

CITY           SKY/WX    TMP DP  RH WIND       PRES   REMARKS
MEDFORD        CLEAR     40  38  92 CALM      30.18R
WAUSAU         CLEAR     48  40  73 NW3       30.15R
MOSINEE        CLEAR     46  39  76 NW6       30.17R
MARSHFIELD     CLEAR     46  39  76 NW5       30.17R
WISC RAPIDS    CLEAR     48  42  80 W3        30.18R
STEVENS POINT  CLEAR     48  39  70 NW3       30.17R
WAUPACA        CLEAR     52  47  84 W3        30.16R
SHAWANO        CLEAR     50  46  84 W3        30.14R
CLINTONVILLE   CLEAR     50  45  81 NW3       30.14R
$$

WIZ038-039-048-051-160300-
FOX VALLEY

CITY           SKY/WX    TMP DP  RH WIND       PRES   REMARKS
NWS GREEN BAY  CLEAR     49  47  93 SW5       30.13R
APPLETON       PTCLDY    52  46  82 SW8       30.15R
OSHKOSH        CLEAR     52  47  83 W3        30.14S
FOND DU LAC    CLEAR     49  46  90 SW5       30.16R
$$

WIZ022-050-052-160300-
EAST CENTRAL WISCONSIN

CITY           SKY/WX    TMP DP  RH WIND       PRES   REMARKS
STURGEON BAY   MOCLDY    52  46  82 SW3       30.12S
MANITOWOC      CLEAR     50  48  93 W3        30.14R
SHEBOYGAN      CLEAR     46  45  96 SW5       30.15R
$$

LMZ563-521-522-541>543-160300-
LAKESHORE

STATION/POSITION TIME  TEMP    WIND        PRES    VSBY  WAVE
                       AIR SEA DIR/SP/G                  HT/PER
                 (UTC) (F)     (DEG/KT/KT) (MB)    (MI)  (FT/S)
SHEBOYGAN LKSHOR 0200   53 49  270/  8/  9 1021.2R
KEWAUNEE LKSHORE 0200   52     300/  3/  4 1019.1R
NORTHPORT PIER   0200   51     230/  3/  4 1019.3S
N MID LAKE BUOY  0200   56 58  360/ 14/ 16 1019.6S         1
S GREEN BAY BUOY 0200   59     VRB  8/ 10  1020.8R
CHAMBERS ISLAND  0200   48     230/  2/  3 1019.6R
MENOMINEE LKSHOR 0200   56     250/  4/  5 1020.1R
$$


USA.gov is the U.S. government's official web portal to all federal, state and local government web resources and services.